2019,01,01,00,00,00,62.3,,,,,,,,,,,,,,
2019,01,01,00,01,00,60.7,,,,,,,,,,,,,,
2019,01,01,00,02,00,65.8,,,,,,,,,,,,,,
2019,01,01,00,03,00,83.3,,,,,,,,,,,,,,
2019,01,01,00,04,00,90.0,,,,,,,,,,,,,,
2019,01,01,00,05,00,81.1,,,,,,,,,,,,,,
2019,01,01,00,06,00,71.4,,,,,,,,,,,,,,
2019,01,01,00,07,00,64.2,,,,,,,,,,,,,,
2019,01,01,00,08,00,68.2,,,,,,,,,,,,,,
2019,01,01,00,09,00,65.0,,,,,,,,,,,,,,
2019,01,01,00,10,00,73.3,,,,,,,,,,,,,,
2019,01,01,00,11,00,73.3,,,,,,,,,,,,,,
2019,01,01,00,12,00,66.3,,,,,,,,,,,,,,
2019,01,01,00,13,00,61.7,,,,,,,,,,,,,,
2019,01,01,00,14,00,56.0,,,,,,,,,,,,,,
2019,01,01,00,15,00,54.0,,,,,,,,,,,,,,
2019,01,01,00,16,00,52.5,,,,,,,,,,,,,,
2019,01,01,00,17,00,54.4,,,,,,,,,,,,,,
2019,01,01,00,18,00,51.0,,,,,,,,,,,,,,
2019,01,01,00,19,00,52.3,,,,,,,,,,,,,,
2019,01,01,00,20,00,55.1,,,,,,,,,,,,,,
2019,01,01,00,21,00,47.0,,,,,,,,,,,,,,
2019,01,01,00,22,00,44.6,,,,,,,,,,,,,,
2019,01,01,00,23,00,49.3,,,,,,,,,,,,,,
2019,01,01,00,24,00,59.0,,,,,,,,,,,,,,
2019,01,01,00,25,00,53.0,,,,,,,,,,,,,,
2019,01,01,00,26,00,48.1,,,,,,,,,,,,,,
2019,01,01,00,27,00,60.1,,,,,,,,,,,,,,
2019,01,01,00,28,00,60.3,,,,,,,,,,,,,,
2019,01,01,00,29,00,62.2,,,,,,,,,,,,,,
2019,01,01,00,30,00,66.6,,,,,,,,,,,,,,
2019,01,01,00,31,00,55.0,,,,,,,,,,,,,,
2019,01,01,00,32,00,49.4,,,,,,,,,,,,,,
2019,01,01,00,33,00,61.5,,,,,,,,,,,,,,
2019,01,01,00,34,00,70.6,,,,,,,,,,,,,,
2019,01,01,00,35,00,65.1,,,,,,,,,,,,,,
2019,01,01,00,36,00,59.0,,,,,,,,,,,,,,
2019,01,01,00,37,00,61.1,,,,,,,,,,,,,,
2019,01,01,00,38,00,68.4,,,,,,,,,,,,,,
2019,01,01,00,39,00,76.3,,,,,,,,,,,,,,
2019,01,01,00,40,00,85.7,,,,,,,,,,,,,,
2019,01,01,00,41,00,88.7,,,,,,,,,,,,,,
2019,01,01,00,42,00,94.7,,,,,,,,,,,,,,
2019,01,01,00,43,00,89.3,,,,,,,,,,,,,,
2019,01,01,00,44,00,93.6,,,,,,,,,,,,,,
2019,01,01,00,45,00,90.7,,,,,,,,,,,,,,
2019,01,01,00,46,00,80.7,,,,,,,,,,,,,,
2019,01,01,00,47,00,80.8,,,,,,,,,,,,,,
2019,01,01,00,48,00,73.9,,,,,,,,,,,,,,
2019,01,01,00,49,00,72.8,,,,,,,,,,,,,,
2019,01,01,00,50,00,68.4,,,,,,,,,,,,,,
2019,01,01,00,51,00,70.3,,,,,,,,,,,,,,
2019,01,01,00,52,00,71.5,,,,,,,,,,,,,,
2019,01,01,00,53,00,75.0,,,,,,,,,,,,,,
2019,01,01,00,54,00,78.8,,,,,,,,,,,,,,
2019,01,01,00,55,00,76.7,,,,,,,,,,,,,,
2019,01,01,00,56,00,79.8,,,,,,,,,,,,,,
2019,01,01,00,57,00,85.1,,,,,,,,,,,,,,
2019,01,01,00,58,00,83.6,,,,,,,,,,,,,,
2019,01,01,00,59,00,79.1,,,,,,,,,,,,,,
2019,01,01,01,00,00,72.4,,,,,,,,,,,,,,
2019,01,01,01,01,00,69.0,,,,,,,,,,,,,,
2019,01,01,01,02,00,69.4,,,,,,,,,,,,,,
2019,01,01,01,03,00,69.8,,,,,,,,,,,,,,
2019,01,01,01,04,00,68.2,,,,,,,,,,,,,,
2019,01,01,01,05,00,70.8,,,,,,,,,,,,,,
2019,01,01,01,06,00,69.9,,,,,,,,,,,,,,
2019,01,01,01,07,00,71.0,,,,,,,,,,,,,,
2019,01,01,01,08,00,66.9,,,,,,,,,,,,,,
2019,01,01,01,09,00,52.6,,,,,,,,,,,,,,
2019,01,01,01,10,00,43.6,,,,,,,,,,,,,,
2019,01,01,01,11,00,44.4,,,,,,,,,,,,,,
2019,01,01,01,12,00,56.6,,,,,,,,,,,,,,
2019,01,01,01,13,00,53.3,,,,,,,,,,,,,,
2019,01,01,01,14,00,46.9,,,,,,,,,,,,,,
2019,01,01,01,15,00,43.2,,,,,,,,,,,,,,
2019,01,01,01,16,00,40.5,,,,,,,,,,,,,,
2019,01,01,01,17,00,42.8,,,,,,,,,,,,,,
2019,01,01,01,18,00,42.6,,,,,,,,,,,,,,
2019,01,01,01,19,00,44.7,,,,,,,,,,,,,,
2019,01,01,01,20,00,41.5,,,,,,,,,,,,,,
2019,01,01,01,21,00,42.9,,,,,,,,,,,,,,
2019,01,01,01,22,00,54.0,,,,,,,,,,,,,,
2019,01,01,01,23,00,57.5,,,,,,,,,,,,,,
2019,01,01,01,24,00,51.8,,,,,,,,,,,,,,
2019,01,01,01,25,00,63.1,,,,,,,,,,,,,,
2019,01,01,01,26,00,60.9,,,,,,,,,,,,,,
2019,01,01,01,27,00,68.8,,,,,,,,,,,,,,
2019,01,01,01,28,00,64.3,,,,,,,,,,,,,,
2019,01,01,01,29,00,51.3,,,,,,,,,,,,,,
2019,01,01,01,30,00,49.7,,,,,,,,,,,,,,
2019,01,01,01,31,00,54.6,,,,,,,,,,,,,,
2019,01,01,01,32,00,63.4,,,,,,,,,,,,,,
2019,01,01,01,33,00,63.3,,,,,,,,,,,,,,
2019,01,01,01,34,00,59.9,,,,,,,,,,,,,,
2019,01,01,01,35,00,43.4,,,,,,,,,,,,,,
2019,01,01,01,36,00,38.9,,,,,,,,,,,,,,
2019,01,01,01,37,00,40.3,,,,,,,,,,,,,,
2019,01,01,01,38,00,44.1,,,,,,,,,,,,,,
2019,01,01,01,39,00,47.3,,,,,,,,,,,,,,
2019,01,01,01,40,00,59.4,,,,,,,,,,,,,,
2019,01,01,01,41,00,64.2,,,,,,,,,,,,,,
2019,01,01,01,42,00,50.1,,,,,,,,,,,,,,
2019,01,01,01,43,00,46.9,,,,,,,,,,,,,,
2019,01,01,01,44,00,53.1,,,,,,,,,,,,,,
2019,01,01,01,45,00,46.6,,,,,,,,,,,,,,
2019,01,01,01,46,00,46.8,,,,,,,,,,,,,,
2019,01,01,01,47,00,43.7,,,,,,,,,,,,,,
2019,01,01,01,48,00,38.6,,,,,,,,,,,,,,
2019,01,01,01,49,00,38.1,,,,,,,,,,,,,,
2019,01,01,01,50,00,41.5,,,,,,,,,,,,,,
2019,01,01,01,51,00,46.7,,,,,,,,,,,,,,
2019,01,01,01,52,00,45.6,,,,,,,,,,,,,,
2019,01,01,01,53,00,38.6,,,,,,,,,,,,,,
2019,01,01,01,54,00,41.8,,,,,,,,,,,,,,
2019,01,01,01,55,00,55.8,,,,,,,,,,,,,,
2019,01,01,01,56,00,67.2,,,,,,,,,,,,,,
2019,01,01,01,57,00,68.8,,,,,,,,,,,,,,
2019,01,01,01,58,00,73.3,,,,,,,,,,,,,,
2019,01,01,01,59,00,72.4,,,,,,,,,,,,,,
2019,01,01,02,00,00,68.1,,,,,,,,,,,,,,
2019,01,01,02,01,00,69.9,,,,,,,,,,,,,,
2019,01,01,02,02,00,71.6,,,,,,,,,,,,,,
2019,01,01,02,03,00,65.3,,,,,,,,,,,,,,
2019,01,01,02,04,00,58.5,,,,,,,,,,,,,,
2019,01,01,02,05,00,54.4,,,,,,,,,,,,,,
2019,01,01,02,06,00,46.0,,,,,,,,,,,,,,
2019,01,01,02,07,00,41.2,,,,,,,,,,,,,,
2019,01,01,02,08,00,38.3,,,,,,,,,,,,,,
2019,01,01,02,09,00,37.6,,,,,,,,,,,,,,
2019,01,01,02,10,00,44.8,,,,,,,,,,,,,,
2019,01,01,02,11,00,44.6,,,,,,,,,,,,,,
2019,01,01,02,12,00,49.3,,,,,,,,,,,,,,
2019,01,01,02,13,00,50.0,,,,,,,,,,,,,,
2019,01,01,02,14,00,61.7,,,,,,,,,,,,,,
2019,01,01,02,15,00,59.8,,,,,,,,,,,,,,
2019,01,01,02,16,00,50.2,,,,,,,,,,,,,,
2019,01,01,02,17,00,44.5,,,,,,,,,,,,,,
2019,01,01,02,18,00,40.7,,,,,,,,,,,,,,
2019,01,01,02,19,00,40.6,,,,,,,,,,,,,,
2019,01,01,02,20,00,39.2,,,,,,,,,,,,,,
2019,01,01,02,21,00,39.3,,,,,,,,,,,,,,
2019,01,01,02,22,00,40.0,,,,,,,,,,,,,,
2019,01,01,02,23,00,48.2,,,,,,,,,,,,,,
2019,01,01,02,24,00,62.9,,,,,,,,,,,,,,
2019,01,01,02,25,00,41.4,,,,,,,,,,,,,,
2019,01,01,02,26,00,42.8,,,,,,,,,,,,,,
2019,01,01,02,27,00,38.0,,,,,,,,,,,,,,
2019,01,01,02,28,00,37.3,,,,,,,,,,,,,,
2019,01,01,02,29,00,37.3,,,,,,,,,,,,,,
2019,01,01,02,30,00,46.1,,,,,,,,,,,,,,
2019,01,01,02,31,00,64.9,,,,,,,,,,,,,,
2019,01,01,02,32,00,58.0,,,,,,,,,,,,,,
2019,01,01,02,33,00,59.7,,,,,,,,,,,,,,
2019,01,01,02,34,00,65.0,,,,,,,,,,,,,,
2019,01,01,02,35,00,77.8,,,,,,,,,,,,,,
2019,01,01,02,36,00,94.3,,,,,,,,,,,,,,
2019,01,01,02,37,00,76.0,,,,,,,,,,,,,,
2019,01,01,02,38,00,63.4,,,,,,,,,,,,,,
2019,01,01,02,39,00,57.8,,,,,,,,,,,,,,
2019,01,01,02,40,00,65.0,,,,,,,,,,,,,,
2019,01,01,02,41,00,61.3,,,,,,,,,,,,,,
2019,01,01,02,42,00,56.9,,,,,,,,,,,,,,
2019,01,01,02,43,00,39.3,,,,,,,,,,,,,,
2019,01,01,02,44,00,37.8,,,,,,,,,,,,,,
2019,01,01,02,45,00,35.7,,,,,,,,,,,,,,
2019,01,01,02,46,00,35.7,,,,,,,,,,,,,,
2019,01,01,02,47,00,36.0,,,,,,,,,,,,,,
2019,01,01,02,48,00,35.4,,,,,,,,,,,,,,
2019,01,01,02,49,00,35.1,,,,,,,,,,,,,,
2019,01,01,02,50,00,34.9,,,,,,,,,,,,,,
2019,01,01,02,51,00,35.3,,,,,,,,,,,,,,
2019,01,01,02,52,00,33.8,,,,,,,,,,,,,,
2019,01,01,02,53,00,33.8,,,,,,,,,,,,,,
2019,01,01,02,54,00,34.9,,,,,,,,,,,,,,
2019,01,01,02,55,00,36.3,,,,,,,,,,,,,,
2019,01,01,02,56,00,36.2,,,,,,,,,,,,,,
2019,01,01,02,57,00,35.3,,,,,,,,,,,,,,
2019,01,01,02,58,00,37.1,,,,,,,,,,,,,,
2019,01,01,02,59,00,36.3,,,,,,,,,,,,,,
2019,01,01,03,00,00,52.1,,,,,,,,,,,,,,
2019,01,01,03,01,00,48.4,,,,,,,,,,,,,,
2019,01,01,03,02,00,40.7,,,,,,,,,,,,,,
2019,01,01,03,03,00,36.9,,,,,,,,,,,,,,
2019,01,01,03,04,00,38.2,,,,,,,,,,,,,,
2019,01,01,03,05,00,37.8,,,,,,,,,,,,,,
2019,01,01,03,06,00,40.6,,,,,,,,,,,,,,
2019,01,01,03,07,00,64.5,,,,,,,,,,,,,,
2019,01,01,03,08,00,50.8,,,,,,,,,,,,,,
2019,01,01,03,09,00,39.3,,,,,,,,,,,,,,
2019,01,01,03,10,00,43.9,,,,,,,,,,,,,,
2019,01,01,03,11,00,68.0,,,,,,,,,,,,,,
2019,01,01,03,12,00,76.9,,,,,,,,,,,,,,
2019,01,01,03,13,00,65.0,,,,,,,,,,,,,,
2019,01,01,03,14,00,56.6,,,,,,,,,,,,,,
2019,01,01,03,15,00,52.3,,,,,,,,,,,,,,
2019,01,01,03,16,00,52.4,,,,,,,,,,,,,,
2019,01,01,03,17,00,63.7,,,,,,,,,,,,,,
2019,01,01,03,18,00,70.6,,,,,,,,,,,,,,
2019,01,01,03,19,00,68.0,,,,,,,,,,,,,,
2019,01,01,03,20,00,51.8,,,,,,,,,,,,,,
2019,01,01,03,21,00,45.0,,,,,,,,,,,,,,
2019,01,01,03,22,00,62.3,,,,,,,,,,,,,,
2019,01,01,03,23,00,59.9,,,,,,,,,,,,,,
2019,01,01,03,24,00,55.5,,,,,,,,,,,,,,
2019,01,01,03,25,00,50.3,,,,,,,,,,,,,,
2019,01,01,03,26,00,43.0,,,,,,,,,,,,,,
2019,01,01,03,27,00,37.6,,,,,,,,,,,,,,
2019,01,01,03,28,00,36.1,,,,,,,,,,,,,,
2019,01,01,03,29,00,37.8,,,,,,,,,,,,,,
2019,01,01,03,30,00,38.8,,,,,,,,,,,,,,
2019,01,01,03,31,00,39.4,,,,,,,,,,,,,,
2019,01,01,03,32,00,38.6,,,,,,,,,,,,,,
2019,01,01,03,33,00,37.2,,,,,,,,,,,,,,
2019,01,01,03,34,00,37.4,,,,,,,,,,,,,,
2019,01,01,03,35,00,37.2,,,,,,,,,,,,,,
2019,01,01,03,36,00,37.8,,,,,,,,,,,,,,
2019,01,01,03,37,00,46.9,,,,,,,,,,,,,,
2019,01,01,03,38,00,72.3,,,,,,,,,,,,,,
2019,01,01,03,39,00,51.8,,,,,,,,,,,,,,
2019,01,01,03,40,00,36.8,,,,,,,,,,,,,,
2019,01,01,03,41,00,37.2,,,,,,,,,,,,,,
2019,01,01,03,42,00,52.1,,,,,,,,,,,,,,
2019,01,01,03,43,00,57.3,,,,,,,,,,,,,,
2019,01,01,03,44,00,73.5,,,,,,,,,,,,,,
2019,01,01,03,45,00,45.4,,,,,,,,,,,,,,
2019,01,01,03,46,00,38.4,,,,,,,,,,,,,,
2019,01,01,03,47,00,46.9,,,,,,,,,,,,,,
2019,01,01,03,48,00,51.6,,,,,,,,,,,,,,
2019,01,01,03,49,00,42.2,,,,,,,,,,,,,,
2019,01,01,03,50,00,40.4,,,,,,,,,,,,,,
2019,01,01,03,51,00,61.2,,,,,,,,,,,,,,
2019,01,01,03,52,00,78.4,,,,,,,,,,,,,,
2019,01,01,03,53,00,60.5,,,,,,,,,,,,,,
2019,01,01,03,54,00,55.4,,,,,,,,,,,,,,
2019,01,01,03,55,00,51.9,,,,,,,,,,,,,,
2019,01,01,03,56,00,61.7,,,,,,,,,,,,,,
2019,01,01,03,57,00,64.2,,,,,,,,,,,,,,
2019,01,01,03,58,00,70.6,,,,,,,,,,,,,,
2019,01,01,03,59,00,58.9,,,,,,,,,,,,,,
2019,01,01,04,00,00,60.7,,,,,,,,,,,,,,
2019,01,01,04,01,00,60.1,,,,,,,,,,,,,,
2019,01,01,04,02,00,62.4,,,,,,,,,,,,,,
2019,01,01,04,03,00,72.2,,,,,,,,,,,,,,
2019,01,01,04,04,00,69.4,,,,,,,,,,,,,,
2019,01,01,04,05,00,64.7,,,,,,,,,,,,,,
2019,01,01,04,06,00,52.2,,,,,,,,,,,,,,
2019,01,01,04,07,00,41.1,,,,,,,,,,,,,,
2019,01,01,04,08,00,37.2,,,,,,,,,,,,,,
2019,01,01,04,09,00,39.3,,,,,,,,,,,,,,
2019,01,01,04,10,00,62.8,,,,,,,,,,,,,,
2019,01,01,04,11,00,53.3,,,,,,,,,,,,,,
2019,01,01,04,12,00,36.7,,,,,,,,,,,,,,
2019,01,01,04,13,00,37.5,,,,,,,,,,,,,,
2019,01,01,04,14,00,35.6,,,,,,,,,,,,,,
2019,01,01,04,15,00,37.7,,,,,,,,,,,,,,
2019,01,01,04,16,00,40.3,,,,,,,,,,,,,,
2019,01,01,04,17,00,40.4,,,,,,,,,,,,,,
2019,01,01,04,18,00,43.3,,,,,,,,,,,,,,
2019,01,01,04,19,00,53.2,,,,,,,,,,,,,,
2019,01,01,04,20,00,46.3,,,,,,,,,,,,,,
2019,01,01,04,21,00,37.0,,,,,,,,,,,,,,
2019,01,01,04,22,00,34.9,,,,,,,,,,,,,,
2019,01,01,04,23,00,37.1,,,,,,,,,,,,,,
2019,01,01,04,24,00,40.2,,,,,,,,,,,,,,
2019,01,01,04,25,00,39.1,,,,,,,,,,,,,,
2019,01,01,04,26,00,39.5,,,,,,,,,,,,,,
2019,01,01,04,27,00,37.7,,,,,,,,,,,,,,
2019,01,01,04,28,00,37.0,,,,,,,,,,,,,,
2019,01,01,04,29,00,48.2,,,,,,,,,,,,,,
2019,01,01,04,30,00,45.5,,,,,,,,,,,,,,
2019,01,01,04,31,00,36.4,,,,,,,,,,,,,,
2019,01,01,04,32,00,37.3,,,,,,,,,,,,,,
2019,01,01,04,33,00,36.7,,,,,,,,,,,,,,
2019,01,01,04,34,00,34.4,,,,,,,,,,,,,,
2019,01,01,04,35,00,30.7,,,,,,,,,,,,,,
2019,01,01,04,36,00,34.7,,,,,,,,,,,,,,
2019,01,01,04,37,00,35.3,,,,,,,,,,,,,,
2019,01,01,04,38,00,37.5,,,,,,,,,,,,,,
2019,01,01,04,39,00,37.0,,,,,,,,,,,,,,
2019,01,01,04,40,00,35.5,,,,,,,,,,,,,,
2019,01,01,04,41,00,31.9,,,,,,,,,,,,,,
2019,01,01,04,42,00,35.7,,,,,,,,,,,,,,
2019,01,01,04,43,00,49.6,,,,,,,,,,,,,,
2019,01,01,04,44,00,60.7,,,,,,,,,,,,,,
2019,01,01,04,45,00,50.3,,,,,,,,,,,,,,
2019,01,01,04,46,00,49.0,,,,,,,,,,,,,,
2019,01,01,04,47,00,42.0,,,,,,,,,,,,,,
2019,01,01,04,48,00,39.6,,,,,,,,,,,,,,
2019,01,01,04,49,00,41.2,,,,,,,,,,,,,,
2019,01,01,04,50,00,66.6,,,,,,,,,,,,,,
2019,01,01,04,51,00,77.6,,,,,,,,,,,,,,
2019,01,01,04,52,00,65.8,,,,,,,,,,,,,,
2019,01,01,04,53,00,44.2,,,,,,,,,,,,,,
2019,01,01,04,54,00,34.9,,,,,,,,,,,,,,
2019,01,01,04,55,00,33.5,,,,,,,,,,,,,,
2019,01,01,04,56,00,36.8,,,,,,,,,,,,,,
2019,01,01,04,57,00,45.9,,,,,,,,,,,,,,
2019,01,01,04,58,00,66.7,,,,,,,,,,,,,,
2019,01,01,04,59,00,53.6,,,,,,,,,,,,,,
2019,01,01,05,00,00,38.1,,,,,,,,,,,,,,
2019,01,01,05,01,00,37.3,,,,,,,,,,,,,,
2019,01,01,05,02,00,37.6,,,,,,,,,,,,,,
2019,01,01,05,03,00,36.4,,,,,,,,,,,,,,
2019,01,01,05,04,00,35.6,,,,,,,,,,,,,,
2019,01,01,05,05,00,37.6,,,,,,,,,,,,,,
2019,01,01,05,06,00,37.3,,,,,,,,,,,,,,
2019,01,01,05,07,00,35.2,,,,,,,,,,,,,,
2019,01,01,05,08,00,36.4,,,,,,,,,,,,,,
2019,01,01,05,09,00,36.7,,,,,,,,,,,,,,
2019,01,01,05,10,00,37.6,,,,,,,,,,,,,,
2019,01,01,05,11,00,46.3,,,,,,,,,,,,,,
2019,01,01,05,12,00,68.5,,,,,,,,,,,,,,
2019,01,01,05,13,00,43.9,,,,,,,,,,,,,,
2019,01,01,05,14,00,46.0,,,,,,,,,,,,,,
2019,01,01,05,15,00,49.5,,,,,,,,,,,,,,
2019,01,01,05,16,00,59.8,,,,,,,,,,,,,,
2019,01,01,05,17,00,69.2,,,,,,,,,,,,,,
2019,01,01,05,18,00,68.3,,,,,,,,,,,,,,
2019,01,01,05,19,00,42.7,,,,,,,,,,,,,,
2019,01,01,05,20,00,38.1,,,,,,,,,,,,,,
2019,01,01,05,21,00,38.1,,,,,,,,,,,,,,
2019,01,01,05,22,00,37.6,,,,,,,,,,,,,,
2019,01,01,05,23,00,38.9,,,,,,,,,,,,,,
2019,01,01,05,24,00,55.0,,,,,,,,,,,,,,
2019,01,01,05,25,00,69.9,,,,,,,,,,,,,,
2019,01,01,05,26,00,55.9,,,,,,,,,,,,,,
2019,01,01,05,27,00,37.9,,,,,,,,,,,,,,
2019,01,01,05,28,00,43.8,,,,,,,,,,,,,,
2019,01,01,05,29,00,37.5,,,,,,,,,,,,,,
2019,01,01,05,30,00,40.9,,,,,,,,,,,,,,
2019,01,01,05,31,00,57.1,,,,,,,,,,,,,,
2019,01,01,05,32,00,38.6,,,,,,,,,,,,,,
2019,01,01,05,33,00,51.1,,,,,,,,,,,,,,
2019,01,01,05,34,00,43.5,,,,,,,,,,,,,,
2019,01,01,05,35,00,38.9,,,,,,,,,,,,,,
2019,01,01,05,36,00,38.6,,,,,,,,,,,,,,
2019,01,01,05,37,00,37.4,,,,,,,,,,,,,,
2019,01,01,05,38,00,37.0,,,,,,,,,,,,,,
2019,01,01,05,39,00,42.1,,,,,,,,,,,,,,
2019,01,01,05,40,00,39.2,,,,,,,,,,,,,,
2019,01,01,05,41,00,38.4,,,,,,,,,,,,,,
2019,01,01,05,42,00,36.9,,,,,,,,,,,,,,
2019,01,01,05,43,00,37.6,,,,,,,,,,,,,,
2019,01,01,05,44,00,62.1,,,,,,,,,,,,,,
2019,01,01,05,45,00,47.9,,,,,,,,,,,,,,
2019,01,01,05,46,00,36.8,,,,,,,,,,,,,,
2019,01,01,05,47,00,36.8,,,,,,,,,,,,,,
2019,01,01,05,48,00,36.9,,,,,,,,,,,,,,
2019,01,01,05,49,00,41.5,,,,,,,,,,,,,,
2019,01,01,05,50,00,63.9,,,,,,,,,,,,,,
2019,01,01,05,51,00,69.2,,,,,,,,,,,,,,
2019,01,01,05,52,00,58.2,,,,,,,,,,,,,,
2019,01,01,05,53,00,67.2,,,,,,,,,,,,,,
2019,01,01,05,54,00,70.6,,,,,,,,,,,,,,
2019,01,01,05,55,00,70.9,,,,,,,,,,,,,,
2019,01,01,05,56,00,67.9,,,,,,,,,,,,,,
2019,01,01,05,57,00,51.9,,,,,,,,,,,,,,
2019,01,01,05,58,00,56.3,,,,,,,,,,,,,,
2019,01,01,05,59,00,59.6,,,,,,,,,,,,,,
2019,01,01,06,00,00,42.7,,,,,,,,,,,,,,
2019,01,01,06,01,00,43.0,,,,,,,,,,,,,,
2019,01,01,06,02,00,41.9,,,,,,,,,,,,,,
2019,01,01,06,03,00,63.6,,,,,,,,,,,,,,
2019,01,01,06,04,00,54.7,,,,,,,,,,,,,,
2019,01,01,06,05,00,40.8,,,,,,,,,,,,,,
2019,01,01,06,06,00,49.7,,,,,,,,,,,,,,
2019,01,01,06,07,00,37.6,,,,,,,,,,,,,,
2019,01,01,06,08,00,43.8,,,,,,,,,,,,,,
2019,01,01,06,09,00,50.7,,,,,,,,,,,,,,
2019,01,01,06,10,00,57.7,,,,,,,,,,,,,,
2019,01,01,06,11,00,61.8,,,,,,,,,,,,,,
2019,01,01,06,12,00,60.4,,,,,,,,,,,,,,
2019,01,01,06,13,00,65.2,,,,,,,,,,,,,,
2019,01,01,06,14,00,67.3,,,,,,,,,,,,,,
2019,01,01,06,15,00,64.1,,,,,,,,,,,,,,
2019,01,01,06,16,00,68.5,,,,,,,,,,,,,,
2019,01,01,06,17,00,75.3,,,,,,,,,,,,,,
2019,01,01,06,18,00,87.5,,,,,,,,,,,,,,
2019,01,01,06,19,00,90.8,,,,,,,,,,,,,,
2019,01,01,06,20,00,78.7,,,,,,,,,,,,,,
2019,01,01,06,21,00,89.5,,,,,,,,,,,,,,
2019,01,01,06,22,00,103.9,,,,,,,,,,,,,,
2019,01,01,06,23,00,76.9,,,,,,,,,,,,,,
2019,01,01,06,24,00,79.7,,,,,,,,,,,,,,
2019,01,01,06,25,00,114.8,,,,,,,,,,,,,,
2019,01,01,06,26,00,145.7,,,,,,,,,,,,,,
2019,01,01,06,27,00,137.8,,,,,,,,,,,,,,
2019,01,01,06,28,00,143.6,,,,,,,,,,,,,,
2019,01,01,06,29,00,126.2,,,,,,,,,,,,,,
2019,01,01,06,30,00,118.0,,,,,,,,,,,,,,
2019,01,01,06,31,00,101.8,,,,,,,,,,,,,,
2019,01,01,06,32,00,106.7,,,,,,,,,,,,,,
2019,01,01,06,33,00,111.0,,,,,,,,,,,,,,
2019,01,01,06,34,00,125.6,,,,,,,,,,,,,,
2019,01,01,06,35,00,98.7,,,,,,,,,,,,,,
2019,01,01,06,36,00,82.7,,,,,,,,,,,,,,
2019,01,01,06,37,00,80.5,,,,,,,,,,,,,,
2019,01,01,06,38,00,81.3,,,,,,,,,,,,,,
2019,01,01,06,39,00,82.6,,,,,,,,,,,,,,
2019,01,01,06,40,00,89.1,,,,,,,,,,,,,,
2019,01,01,06,41,00,78.1,,,,,,,,,,,,,,
2019,01,01,06,42,00,80.9,,,,,,,,,,,,,,
2019,01,01,06,43,00,84.7,,,,,,,,,,,,,,
2019,01,01,06,44,00,84.2,,,,,,,,,,,,,,
2019,01,01,06,45,00,121.1,,,,,,,,,,,,,,
2019,01,01,06,46,00,120.5,,,,,,,,,,,,,,
2019,01,01,06,47,00,109.9,,,,,,,,,,,,,,
2019,01,01,06,48,00,107.4,,,,,,,,,,,,,,
2019,01,01,06,49,00,112.2,,,,,,,,,,,,,,
2019,01,01,06,50,00,105.7,,,,,,,,,,,,,,
2019,01,01,06,51,00,88.9,,,,,,,,,,,,,,
2019,01,01,06,52,00,100.2,,,,,,,,,,,,,,
2019,01,01,06,53,00,92.4,,,,,,,,,,,,,,
2019,01,01,06,54,00,83.2,,,,,,,,,,,,,,
2019,01,01,06,55,00,76.7,,,,,,,,,,,,,,
2019,01,01,06,56,00,71.0,,,,,,,,,,,,,,
2019,01,01,06,57,00,73.5,,,,,,,,,,,,,,
2019,01,01,06,58,00,75.5,,,,,,,,,,,,,,
2019,01,01,06,59,00,77.0,,,,,,,,,,,,,,
2019,01,01,07,00,00,80.0,,,,,,,,,,,,,,
2019,01,01,07,01,00,81.4,,,,,,,,,,,,,,
2019,01,01,07,02,00,95.6,,,,,,,,,,,,,,
2019,01,01,07,03,00,95.0,,,,,,,,,,,,,,
2019,01,01,07,04,00,81.9,,,,,,,,,,,,,,
2019,01,01,07,05,00,109.1,,,,,,,,,,,,,,
2019,01,01,07,06,00,95.1,,,,,,,,,,,,,,
2019,01,01,07,07,00,80.1,,,,,,,,,,,,,,
2019,01,01,07,08,00,76.2,,,,,,,,,,,,,,
2019,01,01,07,09,00,74.8,,,,,,,,,,,,,,
2019,01,01,07,10,00,74.0,,,,,,,,,,,,,,
2019,01,01,07,11,00,77.1,,,,,,,,,,,,,,
2019,01,01,07,12,00,76.5,,,,,,,,,,,,,,
2019,01,01,07,13,00,70.4,,,,,,,,,,,,,,
2019,01,01,07,14,00,78.8,,,,,,,,,,,,,,
2019,01,01,07,15,00,76.4,,,,,,,,,,,,,,
2019,01,01,07,16,00,72.8,,,,,,,,,,,,,,
2019,01,01,07,17,00,70.6,,,,,,,,,,,,,,
2019,01,01,07,18,00,70.0,,,,,,,,,,,,,,
2019,01,01,07,19,00,73.2,,,,,,,,,,,,,,
2019,01,01,07,20,00,69.6,,,,,,,,,,,,,,
2019,01,01,07,21,00,73.8,,,,,,,,,,,,,,
2019,01,01,07,22,00,67.3,,,,,,,,,,,,,,
2019,01,01,07,23,00,79.5,,,,,,,,,,,,,,
2019,01,01,07,24,00,81.3,,,,,,,,,,,,,,
2019,01,01,07,25,00,76.9,,,,,,,,,,,,,,
2019,01,01,07,26,00,74.8,,,,,,,,,,,,,,
2019,01,01,07,27,00,80.1,,,,,,,,,,,,,,
2019,01,01,07,28,00,79.4,,,,,,,,,,,,,,
2019,01,01,07,29,00,66.5,,,,,,,,,,,,,,
2019,01,01,07,30,00,70.2,,,,,,,,,,,,,,
2019,01,01,07,31,00,77.7,,,,,,,,,,,,,,
2019,01,01,07,32,00,94.5,,,,,,,,,,,,,,
2019,01,01,07,33,00,74.9,,,,,,,,,,,,,,
2019,01,01,07,34,00,,,,,,,,,,,,,,,
2019,01,01,07,35,00,,,,,,,,,,,,,,,
2019,01,01,07,36,00,74.8,,,,,,,,,,,,,,
2019,01,01,07,37,00,91.1,,,,,,,,,,,,,,
2019,01,01,07,38,00,116.5,,,,,,,,,,,,,,
2019,01,01,07,39,00,112.6,,,,,,,,,,,,,,
2019,01,01,07,40,00,84.4,,,,,,,,,,,,,,
2019,01,01,07,41,00,88.8,,,,,,,,,,,,,,
2019,01,01,07,42,00,101.3,,,,,,,,,,,,,,
2019,01,01,07,43,00,89.5,,,,,,,,,,,,,,
2019,01,01,07,44,00,94.0,,,,,,,,,,,,,,
2019,01,01,07,45,00,84.0,,,,,,,,,,,,,,
2019,01,01,07,46,00,84.0,,,,,,,,,,,,,,
2019,01,01,07,47,00,100.5,,,,,,,,,,,,,,
2019,01,01,07,48,00,81.9,,,,,,,,,,,,,,
2019,01,01,07,49,00,80.9,,,,,,,,,,,,,,
2019,01,01,07,50,00,85.8,,,,,,,,,,,,,,
2019,01,01,07,51,00,92.9,,,,,,,,,,,,,,
2019,01,01,07,52,00,102.8,,,,,,,,,,,,,,
2019,01,01,07,53,00,132.7,,,,,,,,,,,,,,
2019,01,01,07,54,00,165.5,,,,,,,,,,,,,,
2019,01,01,07,55,00,192.3,,,,,,,,,,,,,,
2019,01,01,07,56,00,165.7,,,,,,,,,,,,,,
2019,01,01,07,57,00,141.8,,,,,,,,,,,,,,
2019,01,01,07,58,00,121.4,,,,,,,,,,,,,,
2019,01,01,07,59,00,123.7,,,,,,,,,,,,,,
2019,01,01,08,00,00,126.7,,,,,,,,,,,,,,
2019,01,01,08,01,00,111.4,,,,,,,,,,,,,,
2019,01,01,08,02,00,100.9,,,,,,,,,,,,,,
2019,01,01,08,03,00,110.3,,,,,,,,,,,,,,
2019,01,01,08,04,00,108.4,,,,,,,,,,,,,,
2019,01,01,08,05,00,146.7,,,,,,,,,,,,,,
2019,01,01,08,06,00,160.2,,,,,,,,,,,,,,
2019,01,01,08,07,00,165.0,,,,,,,,,,,,,,
2019,01,01,08,08,00,134.0,,,,,,,,,,,,,,
2019,01,01,08,09,00,111.9,,,,,,,,,,,,,,
2019,01,01,08,10,00,125.8,,,,,,,,,,,,,,
2019,01,01,08,11,00,155.8,,,,,,,,,,,,,,
2019,01,01,08,12,00,154.8,,,,,,,,,,,,,,
2019,01,01,08,13,00,140.4,,,,,,,,,,,,,,
2019,01,01,08,14,00,149.3,,,,,,,,,,,,,,
2019,01,01,08,15,00,156.8,,,,,,,,,,,,,,
2019,01,01,08,16,00,163.7,,,,,,,,,,,,,,
2019,01,01,08,17,00,129.2,,,,,,,,,,,,,,
2019,01,01,08,18,00,123.5,,,,,,,,,,,,,,
2019,01,01,08,19,00,173.7,,,,,,,,,,,,,,
2019,01,01,08,20,00,244.9,,,,,,,,,,,,,,
2019,01,01,08,21,00,151.3,,,,,,,,,,,,,,
2019,01,01,08,22,00,147.6,,,,,,,,,,,,,,
2019,01,01,08,23,00,130.8,,,,,,,,,,,,,,
2019,01,01,08,24,00,109.6,,,,,,,,,,,,,,
2019,01,01,08,25,00,104.5,,,,,,,,,,,,,,
2019,01,01,08,26,00,84.5,,,,,,,,,,,,,,
2019,01,01,08,27,00,87.8,,,,,,,,,,,,,,
2019,01,01,08,28,00,97.9,,,,,,,,,,,,,,
2019,01,01,08,29,00,100.6,,,,,,,,,,,,,,
2019,01,01,08,30,00,111.5,,,,,,,,,,,,,,
2019,01,01,08,31,00,106.7,,,,,,,,,,,,,,
2019,01,01,08,32,00,118.5,,,,,,,,,,,,,,
2019,01,01,08,33,00,132.5,,,,,,,,,,,,,,
2019,01,01,08,34,00,114.6,,,,,,,,,,,,,,
2019,01,01,08,35,00,103.1,,,,,,,,,,,,,,
2019,01,01,08,36,00,99.2,,,,,,,,,,,,,,
2019,01,01,08,37,00,99.0,,,,,,,,,,,,,,
2019,01,01,08,38,00,108.8,,,,,,,,,,,,,,
2019,01,01,08,39,00,129.5,,,,,,,,,,,,,,
2019,01,01,08,40,00,156.4,,,,,,,,,,,,,,
2019,01,01,08,41,00,136.9,,,,,,,,,,,,,,
2019,01,01,08,42,00,121.8,,,,,,,,,,,,,,
2019,01,01,08,43,00,131.9,,,,,,,,,,,,,,
2019,01,01,08,44,00,149.2,,,,,,,,,,,,,,
2019,01,01,08,45,00,115.7,,,,,,,,,,,,,,
2019,01,01,08,46,00,112.4,,,,,,,,,,,,,,
2019,01,01,08,47,00,114.8,,,,,,,,,,,,,,
2019,01,01,08,48,00,115.7,,,,,,,,,,,,,,
2019,01,01,08,49,00,157.4,,,,,,,,,,,,,,
2019,01,01,08,50,00,175.7,,,,,,,,,,,,,,
2019,01,01,08,51,00,175.9,,,,,,,,,,,,,,
2019,01,01,08,52,00,177.4,,,,,,,,,,,,,,
2019,01,01,08,53,00,145.6,,,,,,,,,,,,,,
2019,01,01,08,54,00,140.0,,,,,,,,,,,,,,
2019,01,01,08,55,00,122.7,,,,,,,,,,,,,,
2019,01,01,08,56,00,157.4,,,,,,,,,,,,,,
2019,01,01,08,57,00,161.8,,,,,,,,,,,,,,
2019,01,01,08,58,00,146.1,,,,,,,,,,,,,,
2019,01,01,08,59,00,114.4,,,,,,,,,,,,,,
2019,01,01,09,00,00,115.4,,,,,,,,,,,,,,
2019,01,01,09,01,00,134.0,,,,,,,,,,,,,,
2019,01,01,09,02,00,169.9,,,,,,,,,,,,,,
2019,01,01,09,03,00,202.8,,,,,,,,,,,,,,
2019,01,01,09,04,00,178.4,,,,,,,,,,,,,,
2019,01,01,09,05,00,162.3,,,,,,,,,,,,,,
2019,01,01,09,06,00,162.5,,,,,,,,,,,,,,
2019,01,01,09,07,00,164.2,,,,,,,,,,,,,,
2019,01,01,09,08,00,160.3,,,,,,,,,,,,,,
2019,01,01,09,09,00,193.5,,,,,,,,,,,,,,
2019,01,01,09,10,00,205.1,,,,,,,,,,,,,,
2019,01,01,09,11,00,192.0,,,,,,,,,,,,,,
2019,01,01,09,12,00,157.1,,,,,,,,,,,,,,
2019,01,01,09,13,00,154.5,,,,,,,,,,,,,,
2019,01,01,09,14,00,166.4,,,,,,,,,,,,,,
2019,01,01,09,15,00,,,,,,,,,,,,,,,
2019,01,01,09,16,00,,,,,,,,,,,,,,,
2019,01,01,09,17,00,154.6,,,,,,,,,,,,,,
2019,01,01,09,18,00,166.6,,,,,,,,,,,,,,
2019,01,01,09,19,00,194.7,,,,,,,,,,,,,,
2019,01,01,09,20,00,217.3,,,,,,,,,,,,,,
2019,01,01,09,21,00,178.7,,,,,,,,,,,,,,
2019,01,01,09,22,00,146.8,,,,,,,,,,,,,,
2019,01,01,09,23,00,146.8,,,,,,,,,,,,,,
2019,01,01,09,24,00,128.0,,,,,,,,,,,,,,
2019,01,01,09,25,00,161.8,,,,,,,,,,,,,,
2019,01,01,09,26,00,164.0,,,,,,,,,,,,,,
2019,01,01,09,27,00,165.1,,,,,,,,,,,,,,
2019,01,01,09,28,00,195.4,,,,,,,,,,,,,,
2019,01,01,09,29,00,211.7,,,,,,,,,,,,,,
2019,01,01,09,30,00,180.7,,,,,,,,,,,,,,
2019,01,01,09,31,00,168.0,,,,,,,,,,,,,,
2019,01,01,09,32,00,171.4,,,,,,,,,,,,,,
2019,01,01,09,33,00,158.5,,,,,,,,,,,,,,
2019,01,01,09,34,00,163.6,,,,,,,,,,,,,,
2019,01,01,09,35,00,143.6,,,,,,,,,,,,,,
2019,01,01,09,36,00,137.4,,,,,,,,,,,,,,
2019,01,01,09,37,00,142.0,,,,,,,,,,,,,,
2019,01,01,09,38,00,135.1,,,,,,,,,,,,,,
2019,01,01,09,39,00,140.2,,,,,,,,,,,,,,
2019,01,01,09,40,00,129.0,,,,,,,,,,,,,,
2019,01,01,09,41,00,127.4,,,,,,,,,,,,,,
2019,01,01,09,42,00,135.6,,,,,,,,,,,,,,
2019,01,01,09,43,00,174.3,,,,,,,,,,,,,,
2019,01,01,09,44,00,166.8,,,,,,,,,,,,,,
2019,01,01,09,45,00,195.7,,,,,,,,,,,,,,
2019,01,01,09,46,00,200.0,,,,,,,,,,,,,,
2019,01,01,09,47,00,166.5,,,,,,,,,,,,,,
2019,01,01,09,48,00,162.2,,,,,,,,,,,,,,
2019,01,01,09,49,00,206.3,,,,,,,,,,,,,,
2019,01,01,09,50,00,183.1,,,,,,,,,,,,,,
2019,01,01,09,51,00,178.4,,,,,,,,,,,,,,
2019,01,01,09,52,00,164.8,,,,,,,,,,,,,,
2019,01,01,09,53,00,150.5,,,,,,,,,,,,,,
2019,01,01,09,54,00,179.8,,,,,,,,,,,,,,
2019,01,01,09,55,00,191.6,,,,,,,,,,,,,,